Starlink 32905

operational
NORAD ID: 62923 Int'l Des: 2025-027 Owner: SPXS Country: US Constellation: starlink
LEOCIRCULAR

Über Starlink 32905

Beschreibung wird geladen...

Live-Position

3D-Globus wird geladen...

Nächste Überflüge

Höhenverlauf

Altitude vs Time

uPlot chart will show altitude changes over time

Zweizeiliger Elementsatz

1 62923U 25027S 26034.51696318 .00029542 00000-0 10790-2 0 9993
2 62923 43.0017 322.0693 0000913 295.8050 64.2708 15.27572485 56314
Epoch: 3. Feb. 2026 • Age: 16 hours

Aktueller Status

Höhe 486.8 km
Geschwindigkeit 7.62 km/s
Subsatellitenpunkt -19.98°S, 101.72°E
Startdatum 8. Feb. 2025
Alter 0.9 years
Typ internet

Technische Details

Klassifizierung Payload
Masse 730.00 kg
Trockenmasse 700.00 kg
Gesamtmasse 730.00 kg
Länge 0.30 m
Durchmesser 4.10 m
Spannweite 29.00 m
Form Box + pan
Hersteller SPXS
Bus-Typ Starlink V2M
Phasenstatus In Orbit
Besitzer/Staat SPXS/US

Große Konstellationen

Loading constellations...